QPF
0.02 0.03 0.02 0.02 0.03 0.04 0.04 0.04 0.04 0.03 0.02 0.01 0.01 0.01 0.01 0.01 0.01 0.01 0.00 0.00 0.00 0.00 0.01 0.01 0.01 0.01 0.01 0.02 0.03 0.03 0.04 0.04 0.04 0.04 0.03 0.03 0.03 0.03
0.02 0.03 0.03 0.02 0.01 0.02 0.03 0.03 0.03 0.03 0.02 0.01 0.01 0.01 0.01 0.01 0.01 0.01 0.00 0.01 0.01 0.01 0.01 0.01 0.01 0.01 0.01 0.01 0.01 0.02 0.02 0.02 0.03 0.03 0.03 0.03 0.03 0.03
0.03 0.03 0.04 0.03 0.02 0.02 0.03 0.03 0.03 0.03 0.03 0.02 0.01 0.01 0.01 0.01 0.01 0.01 0.01 0.01 0.01 0.01 0.01 0.01 0.01 0.01 0.01 0.01 0.01 0.01 0.01 0.01 0.02 0.02 0.02 0.03 0.03 0.02
0.02 0.03 0.04 0.04 0.03 0.03 0.03 0.03 0.03 0.03 0.03 0.03 0.02 0.02 0.01 0.01 0.01 0.01 0.02 0.02 0.01 0.01 0.01 0.01 0.01 0.01 0.01 0.01 0.01 0.01 0.01 0.01 0.01 0.01 0.01 0.01 0.02 0.02
0.02 0.03 0.03 0.04 0.05 0.04 0.04 0.04 0.04 0.04 0.03 0.03 0.03 0.02 0.02 0.03 0.03 0.03 0.02 0.01 0.01 0.01 0.01 0.01 0.01 0.01 0.01 0.01 0.01 0.01 0.01 0.00 0.00 0.01 0.01 0.01 0.01 0.01
0.03 0.03 0.03 0.03 0.04 0.04 0.03 0.04 0.04 0.03 0.03 0.03 0.03 0.03 0.03 0.03 0.03 0.02 0.02 0.01 0.01 0.01 0.01 0.01 0.01 0.01 0.01 0.01 0.01 0.01 0.00 0.00 0.00 0.00 0.00 0.00 0.01 0.01
0.03 0.03 0.03 0.04 0.03 0.03 0.03 0.03 0.04 0.04 0.03 0.03 0.03 0.03 0.03 0.03 0.02 0.02 0.02 0.02 0.01 0.01 0.01 0.02 0.02 0.02 0.01 0.01 0.01 0.01 0.01 0.01 0.00 0.00 0.01 0.01 0.01 0.01
0.03 0.03 0.03 0.03 0.03 0.03 0.03 0.03 0.03 0.04 0.03 0.03 0.03 0.02 0.02 0.03 0.03 0.03 0.03 0.03 0.02 0.01 0.01 0.01 0.02 0.02 0.02 0.02 0.02 0.02 0.01 0.01 0.01 0.01 0.01 0.01 0.02 0.02
0.02 0.02 0.02 0.02 0.02 0.02 0.02 0.02 0.02 0.02 0.02 0.02 0.02 0.02 0.02 0.02 0.03 0.03 0.03 0.02 0.02 0.02 0.02 0.02 0.02 0.02 0.02 0.02 0.02 0.02 0.02 0.02 0.02 0.02 0.02 0.02 0.02 0.02
0.01 0.01 0.01 0.01 0.01 0.01 0.01 0.01 0.01 0.01 0.01 0.01 0.01 0.01 0.01 0.02 0.02 0.02 0.02 0.03 0.03 0.02 0.02 0.02 0.02 0.02 0.02 0.02 0.02 0.02 0.02 0.02 0.02 0.02 0.02 0.02 0.02 0.02
0.01 0.01 0.01 0.01 0.01 0.01 0.01 0.01 0.01 0.01 0.01 0.01 0.01 0.02 0.02 0.02 0.02 0.03 0.03 0.03 0.03 0.03 0.02 0.02 0.02 0.02 0.02 0.02 0.03 0.03 0.02 0.02 0.02 0.02 0.03 0.03 0.03 0.03
0.01 0.01 0.01 0.01 0.01 0.01 0.01 0.01 0.01 0.01 0.01 0.01 0.01 0.02 0.02 0.02 0.02 0.02 0.02 0.03 0.02 0.02 0.02 0.02 0.02 0.03 0.03 0.03 0.03 0.03 0.03 0.03 0.03 0.03 0.03 0.03 0.03 0.03
0.01 0.01 0.01 0.01 0.01 0.01 0.01 0.01 0.01 0.01 0.01 0.02 0.02 0.02 0.02 0.02 0.02 0.02 0.03 0.03 0.03 0.03 0.02 0.02 0.03 0.03 0.03 0.03 0.02 0.03 0.03 0.04 0.03 0.03 0.03 0.03 0.02 0.02
0.01 0.01 0.01 0.01 0.01 0.01 0.01 0.01 0.02 0.01 0.02 0.02 0.02 0.02 0.02 0.02 0.02 0.02 0.02 0.02 0.02 0.02 0.02 0.03 0.03 0.03 0.04 0.03 0.02 0.02 0.02 0.02 0.03 0.03 0.03 0.04 0.03 0.02
0.01 0.01 0.01 0.01 0.01 0.01 0.01 0.01 0.01 0.01 0.02 0.02 0.02 0.02 0.02 0.02 0.02 0.02 0.02 0.02 0.02 0.02 0.02 0.02 0.02 0.02 0.02 0.03 0.02 0.02 0.02 0.02 0.03 0.03 0.04 0.05 0.03 0.02
0.01 0.01 0.01 0.01 0.01 0.01 0.01 0.01 0.01 0.01 0.01 0.01 0.01 0.01 0.01 0.02 0.02 0.02 0.02 0.01 0.01 0.01 0.01 0.01 0.01 0.01 0.01 0.02 0.02 0.02 0.02 0.03 0.02 0.03 0.04 0.06 0.05 0.03
0.02 0.02 0.02 0.01 0.01 0.01 0.01 0.01 0.01 0.01 0.01 0.01 0.01 0.01 0.01 0.01 0.01 0.01 0.01 0.01 0.01 0.01 0.01 0.01 0.01 0.01 0.01 0.02 0.02 0.02 0.02 0.02 0.02 0.03 0.04 0.05 0.06 0.05
0.02 0.02 0.01 0.01 0.01 0.01 0.01 0.01 0.01 0.01 0.01 0.01 0.01 0.01 0.01 0.01 0.01 0.01 0.01 0.01 0.01 0.01 0.01 0.01 0.01 0.01 0.01 0.01 0.01 0.01 0.01 0.01 0.02 0.02 0.03 0.04 0.05 0.06
0.02 0.01 0.01 0.01 0.01 0.01 0.01 0.01 0.01 0.01 0.01 0.01 0.01 0.01 0.01 0.01 0.01 0.01 0.01 0.01 0.01 0.01 0.01 0.01 0.01 0.01 0.01 0.01 0.00 0.01 0.01 0.01 0.02 0.03 0.03 0.03 0.04 0.06
0.02 0.01 0.01 0.01 0.01 0.01 0.01 0.01 0.01 0.01 0.01 0.01 0.01 0.01 0.01 0.02 0.02 0.01 0.01 0.01 0.01 0.01 0.01 0.00 0.01 0.01 0.02 0.02 0.01 0.01 0.01 0.01 0.02 0.02 0.03 0.03 0.04 0.05
0.01 0.01 0.01 0.01 0.01 0.01 0.01 0.01 0.02 0.02 0.02 0.02 0.02 0.02 0.02 0.02 0.02 0.01 0.01 0.01 0.01 0.01 0.01 0.01 0.01 0.01 0.01 0.01 0.01 0.01 0.01 0.01 0.02 0.03 0.03 0.03 0.04 0.04
0.01 0.01 0.01 0.01 0.01 0.01 0.01 0.01 0.01 0.02 0.02 0.02 0.02 0.02 0.02 0.02 0.02 0.02 0.02 0.02 0.02 0.01 0.01 0.01 0.01 0.01 0.01 0.01 0.01 0.01 0.01 0.01 0.01 0.02 0.03 0.03 0.04 0.04
0.01 0.01 0.01 0.01 0.01 0.01 0.01 0.01 0.01 0.01 0.01 0.01 0.02 0.01 0.01 0.02 0.02 0.02 0.02 0.02 0.02 0.02 0.02 0.01 0.01 0.01 0.01 0.01 0.01 0.01 0.01 0.01 0.01 0.02 0.03 0.03 0.03 0.04
MSLP
1015.93 1016.38 1016.84 1017.30 1017.73 1018.10 1018.42 1018.68 1018.90 1019.08 1019.26 1019.44 1019.64 1019.84 1020.03 1020.20 1020.33 1020.40 1020.41 1020.36 1020.26 1020.13 1020.00 1019.89 1019.80 1019.76 1019.75 1019.77 1019.81 1019.84 1019.86 1019.85 1019.81 1019.74 1019.64 1019.51 1019.37 1019.23
1016.25 1016.67 1017.10 1017.52 1017.92 1018.29 1018.61 1018.88 1019.13 1019.36 1019.58 1019.80 1020.02 1020.23 1020.41 1020.55 1020.63 1020.64 1020.58 1020.45 1020.29 1020.11 1019.93 1019.78 1019.67 1019.61 1019.58 1019.58 1019.59 1019.58 1019.56 1019.50 1019.40 1019.27 1019.11 1018.93 1018.74 1018.54
1016.66 1017.07 1017.49 1017.90 1018.29 1018.64 1018.97 1019.28 1019.56 1019.83 1020.10 1020.35 1020.59 1020.80 1020.96 1021.06 1021.07 1021.00 1020.86 1020.66 1020.42 1020.18 1019.95 1019.77 1019.63 1019.53 1019.47 1019.43 1019.39 1019.33 1019.24 1019.11 1018.94 1018.74 1018.51 1018.27 1018.03 1017.79
1017.14 1017.57 1017.98 1018.39 1018.77 1019.13 1019.47 1019.80 1020.12 1020.43 1020.73 1021.02 1021.27 1021.47 1021.60 1021.65 1021.59 1021.45 1021.23 1020.96 1020.65 1020.35 1020.08 1019.85 1019.67 1019.53 1019.42 1019.32 1019.20 1019.06 1018.87 1018.65 1018.39 1018.10 1017.81 1017.52 1017.23 1016.97
1017.66 1018.11 1018.54 1018.94 1019.32 1019.69 1020.03 1020.38 1020.72 1021.06 1021.39 1021.69 1021.95 1022.14 1022.24 1022.24 1022.14 1021.93 1021.65 1021.32 1020.96 1020.62 1020.30 1020.03 1019.79 1019.59 1019.41 1019.21 1018.99 1018.73 1018.43 1018.09 1017.72 1017.35 1016.99 1016.65 1016.35 1016.09
1018.20 1018.68 1019.12 1019.52 1019.89 1020.25 1020.59 1020.93 1021.28 1021.63 1021.97 1022.28 1022.54 1022.72 1022.80 1022.77 1022.63 1022.40 1022.08 1021.71 1021.33 1020.95 1020.60 1020.28 1019.99 1019.71 1019.42 1019.11 1018.76 1018.35 1017.91 1017.44 1016.95 1016.49 1016.06 1015.68 1015.38 1015.14
1018.73 1019.23 1019.68 1020.07 1020.43 1020.76 1021.09 1021.42 1021.75 1022.09 1022.42 1022.73 1022.98 1023.16 1023.23 1023.19 1023.05 1022.80 1022.48 1022.11 1021.72 1021.32 1020.94 1020.58 1020.22 1019.85 1019.45 1019.00 1018.49 1017.93 1017.32 1016.71 1016.10 1015.54 1015.05 1014.65 1014.35 1014.15
1019.23 1019.74 1020.19 1020.57 1020.91 1021.21 1021.50 1021.80 1022.10 1022.42 1022.73 1023.03 1023.27 1023.44 1023.52 1023.49 1023.36 1023.13 1022.83 1022.48 1022.10 1021.70 1021.30 1020.89 1020.46 1019.99 1019.46 1018.86 1018.20 1017.47 1016.71 1015.95 1015.22 1014.57 1014.03 1013.61 1013.32 1013.16
1019.68 1020.20 1020.64 1021.00 1021.31 1021.58 1021.84 1022.09 1022.36 1022.64 1022.93 1023.20 1023.43 1023.60 1023.68 1023.67 1023.57 1023.38 1023.11 1022.79 1022.43 1022.04 1021.62 1021.17 1020.66 1020.10 1019.45 1018.71 1017.89 1017.01 1016.11 1015.22 1014.38 1013.66 1013.06 1012.63 1012.35 1012.22
1020.06 1020.58 1021.01 1021.36 1021.65 1021.89 1022.11 1022.33 1022.55 1022.80 1023.05 1023.29 1023.51 1023.67 1023.77 1023.77 1023.70 1023.54 1023.31 1023.01 1022.67 1022.29 1021.85 1021.36 1020.79 1020.14 1019.38 1018.53 1017.58 1016.58 1015.56 1014.57 1013.66 1012.87 1012.24 1011.79 1011.52 1011.41
1020.37 1020.89 1021.32 1021.66 1021.93 1022.15 1022.35 1022.53 1022.73 1022.94 1023.16 1023.37 1023.57 1023.72 1023.81 1023.83 1023.77 1023.63 1023.42 1023.14 1022.81 1022.42 1021.96 1021.43 1020.80 1020.08 1019.25 1018.31 1017.28 1016.20 1015.11 1014.06 1013.10 1012.27 1011.62 1011.16 1010.89 1010.79
1020.62 1021.13 1021.56 1021.90 1022.17 1022.39 1022.57 1022.74 1022.91 1023.09 1023.29 1023.48 1023.65 1023.78 1023.86 1023.87 1023.80 1023.66 1023.45 1023.17 1022.82 1022.41 1021.92 1021.35 1020.69 1019.92 1019.03 1018.05 1016.99 1015.87 1014.76 1013.69 1012.72 1011.89 1011.24 1010.77 1010.50 1010.39
1020.80 1021.31 1021.74 1022.09 1022.37 1022.59 1022.77 1022.94 1023.11 1023.28 1023.45 1023.62 1023.76 1023.87 1023.92 1023.90 1023.81 1023.64 1023.40 1023.09 1022.71 1022.26 1021.75 1021.14 1020.45 1019.65 1018.76 1017.77 1016.71 1015.61 1014.52 1013.48 1012.53 1011.73 1011.09 1010.63 1010.35 1010.23
1020.94 1021.45 1021.89 1022.24 1022.53 1022.76 1022.96 1023.13 1023.30 1023.46 1023.63 1023.77 1023.89 1023.97 1023.98 1023.93 1023.79 1023.58 1023.29 1022.94 1022.51 1022.02 1021.46 1020.83 1020.12 1019.32 1018.43 1017.47 1016.45 1015.41 1014.38 1013.40 1012.51 1011.74 1011.13 1010.68 1010.40 1010.26
1021.06 1021.56 1021.99 1022.35 1022.65 1022.89 1023.10 1023.29 1023.46 1023.63 1023.79 1023.93 1024.02 1024.07 1024.05 1023.94 1023.76 1023.50 1023.15 1022.74 1022.26 1021.73 1021.13 1020.47 1019.75 1018.96 1018.11 1017.20 1016.24 1015.27 1014.32 1013.41 1012.59 1011.88 1011.31 1010.87 1010.58 1010.42
1021.17 1021.65 1022.06 1022.42 1022.71 1022.97 1023.19 1023.39 1023.58 1023.75 1023.91 1024.04 1024.13 1024.15 1024.09 1023.95 1023.72 1023.40 1023.01 1022.54 1022.01 1021.43 1020.80 1020.13 1019.41 1018.64 1017.82 1016.97 1016.08 1015.19 1014.32 1013.50 1012.75 1012.09 1011.55 1011.13 1010.83 1010.64
1021.27 1021.72 1022.11 1022.45 1022.74 1022.99 1023.21 1023.43 1023.63 1023.82 1023.98 1024.11 1024.19 1024.19 1024.12 1023.94 1023.67 1023.31 1022.87 1022.36 1021.79 1021.18 1020.53 1019.85 1019.13 1018.39 1017.61 1016.81 1015.99 1015.18 1014.38 1013.62 1012.92 1012.31 1011.79 1011.37 1011.06 1010.84
1021.37 1021.78 1022.14 1022.45 1022.72 1022.97 1023.19 1023.41 1023.62 1023.82 1023.99 1024.13 1024.20 1024.20 1024.10 1023.91 1023.62 1023.23 1022.76 1022.22 1021.63 1020.99 1020.33 1019.65 1018.94 1018.22 1017.48 1016.72 1015.96 1015.20 1014.45 1013.74 1013.08 1012.49 1011.97 1011.55 1011.21 1010.95
1021.46 1021.83 1022.16 1022.44 1022.69 1022.93 1023.15 1023.37 1023.58 1023.78 1023.96 1024.10 1024.17 1024.15 1024.05 1023.84 1023.53 1023.12 1022.64 1022.08 1021.48 1020.84 1020.18 1019.50 1018.81 1018.11 1017.40 1016.68 1015.95 1015.23 1014.51 1013.83 1013.18 1012.59 1012.07 1011.62 1011.24 1010.93
1021.54 1021.88 1022.17 1022.43 1022.66 1022.88 1023.09 1023.31 1023.52 1023.72 1023.89 1024.02 1024.07 1024.05 1023.92 1023.69 1023.37 1022.95 1022.45 1021.89 1021.29 1020.65 1020.00 1019.34 1018.67 1017.99 1017.31 1016.61 1015.91 1015.21 1014.52 1013.85 1013.20 1012.60 1012.06 1011.58 1011.16 1010.80
1021.60 1021.92 1022.19 1022.42 1022.64 1022.84 1023.04 1023.25 1023.45 1023.63 1023.78 1023.88 1023.90 1023.84 1023.69 1023.43 1023.08 1022.64 1022.14 1021.57 1020.97 1020.35 1019.71 1019.07 1018.43 1017.78 1017.12 1016.45 1015.78 1015.10 1014.42 1013.75 1013.11 1012.51 1011.94 1011.43 1010.98 1010.57
1021.66 1021.95 1022.20 1022.41 1022.61 1022.80 1022.99 1023.17 1023.34 1023.49 1023.60 1023.65 1023.62 1023.50 1023.30 1023.00 1022.61 1022.15 1021.62 1021.05 1020.46 1019.85 1019.23 1018.62 1018.00 1017.38 1016.76 1016.12 1015.48 1014.82 1014.17 1013.52 1012.89 1012.28 1011.72 1011.19 1010.71 1010.28
1021.70 1021.97 1022.20 1022.40 1022.58 1022.74 1022.90 1023.05 1023.18 1023.27 1023.31 1023.28 1023.18 1022.99 1022.72 1022.35 1021.91 1021.41 1020.87 1020.29 1019.69 1019.10 1018.51 1017.92 1017.34 1016.76 1016.17 1015.58 1014.98 1014.36 1013.74 1013.12 1012.52 1011.94 1011.39 1010.87 1010.40 1009.96
Thickness
5557 5556 5555 5554 5553 5552 5551 5549 5546 5544 5543 5543 5542 5543 5542 5541 5540 5539 5539 5538 5537 5536 5535 5534 5533 5531 5530 5529 5528 5527 5526 5524 5523 5522 5522 5521 5519 5519
5549 5548 5547 5546 5545 5544 5543 5542 5541 5539 5537 5536 5535 5534 5533 5532 5530 5530 5530 5529 5528 5527 5526 5524 5523 5521 5520 5519 5518 5517 5516 5514 5512 5511 5510 5509 5508 5508
5541 5540 5539 5538 5536 5535 5534 5533 5532 5531 5529 5527 5525 5524 5523 5522 5521 5520 5520 5519 5518 5517 5516 5514 5513 5511 5510 5509 5507 5506 5505 5504 5502 5501 5499 5498 5497 5497
5533 5532 5531 5530 5528 5527 5526 5525 5524 5523 5521 5519 5516 5514 5513 5512 5511 5510 5509 5509 5508 5507 5506 5504 5503 5501 5500 5498 5497 5496 5494 5493 5491 5490 5489 5488 5487 5485
5526 5524 5523 5522 5521 5519 5518 5517 5516 5514 5512 5510 5507 5504 5503 5501 5500 5499 5499 5498 5498 5497 5496 5495 5493 5491 5490 5488 5487 5485 5484 5482 5481 5480 5478 5477 5476 5474
5517 5517 5516 5515 5514 5512 5510 5509 5507 5504 5502 5500 5498 5496 5493 5491 5489 5489 5488 5487 5487 5486 5485 5484 5482 5481 5479 5478 5476 5475 5473 5472 5470 5469 5467 5466 5464 5463
5508 5508 5508 5507 5506 5505 5504 5501 5499 5496 5494 5492 5489 5487 5484 5481 5480 5479 5478 5477 5476 5475 5474 5473 5472 5471 5469 5468 5465 5464 5463 5461 5459 5457 5456 5455 5453 5452
5499 5498 5498 5497 5497 5497 5496 5494 5492 5489 5486 5484 5481 5479 5477 5475 5472 5470 5467 5465 5465 5465 5462 5462 5461 5460 5459 5457 5456 5454 5452 5450 5448 5446 5445 5443 5442 5440
5490 5489 5489 5488 5488 5487 5486 5485 5483 5481 5480 5477 5474 5472 5470 5468 5464 5461 5458 5456 5456 5454 5450 5451 5450 5449 5448 5447 5445 5443 5441 5439 5437 5435 5433 5432 5430 5428
5480 5480 5479 5479 5477 5476 5475 5474 5473 5471 5470 5468 5467 5465 5462 5459 5456 5454 5451 5447 5445 5442 5440 5439 5439 5438 5437 5436 5434 5432 5430 5428 5425 5423 5422 5420 5418 5416
5470 5470 5470 5469 5468 5467 5465 5463 5462 5461 5460 5458 5457 5455 5453 5450 5447 5443 5439 5436 5435 5432 5429 5427 5427 5425 5425 5425 5423 5420 5418 5415 5414 5412 5410 5408 5406 5405
5458 5459 5459 5459 5458 5457 5455 5453 5451 5451 5449 5447 5445 5443 5441 5439 5437 5434 5431 5427 5424 5421 5419 5416 5414 5411 5412 5414 5411 5409 5406 5403 5402 5400 5399 5397 5396 5394
5447 5447 5448 5448 5447 5446 5444 5443 5442 5440 5438 5436 5434 5432 5430 5428 5425 5423 5420 5418 5414 5412 5409 5405 5402 5398 5396 5398 5399 5397 5393 5391 5390 5389 5388 5386 5385 5384
5436 5436 5436 5436 5436 5435 5433 5433 5432 5429 5427 5424 5422 5420 5418 5416 5413 5411 5408 5406 5404 5401 5398 5394 5390 5387 5384 5383 5384 5384 5382 5380 5378 5378 5376 5376 5374 5373
5424 5425 5424 5424 5423 5422 5422 5421 5419 5417 5415 5413 5411 5409 5407 5404 5402 5399 5396 5394 5391 5389 5387 5384 5380 5376 5373 5370 5370 5370 5369 5369 5367 5366 5365 5364 5363 5363
5411 5411 5411 5410 5410 5409 5408 5407 5406 5405 5403 5401 5399 5397 5395 5392 5389 5387 5384 5381 5379 5377 5374 5371 5369 5365 5362 5360 5358 5358 5356 5354 5356 5355 5354 5354 5354 5353
5398 5397 5397 5396 5396 5395 5395 5394 5393 5392 5390 5388 5386 5384 5382 5380 5377 5374 5371 5368 5366 5364 5362 5359 5357 5355 5352 5350 5348 5347 5346 5344 5344 5344 5343 5344 5345 5344
5386 5386 5385 5384 5384 5384 5383 5382 5380 5379 5378 5376 5374 5372 5370 5367 5364 5361 5359 5357 5355 5353 5350 5347 5345 5343 5342 5341 5339 5337 5335 5334 5333 5332 5331 5331 5335 5336
5373 5373 5373 5373 5372 5372 5371 5370 5369 5368 5366 5364 5363 5360 5358 5355 5353 5350 5348 5345 5343 5341 5338 5336 5333 5331 5330 5331 5330 5328 5324 5323 5322 5322 5321 5321 5323 5327
5360 5360 5360 5360 5360 5360 5360 5359 5358 5356 5354 5353 5351 5349 5346 5344 5341 5339 5337 5335 5333 5331 5328 5326 5323 5321 5319 5319 5318 5317 5315 5312 5311 5311 5312 5312 5314 5317
5346 5346 5347 5347 5348 5348 5348 5347 5346 5344 5343 5341 5339 5337 5335 5333 5331 5329 5327 5326 5323 5321 5318 5317 5314 5312 5309 5306 5305 5306 5306 5304 5302 5301 5302 5303 5305 5307
5333 5334 5334 5335 5335 5336 5336 5335 5334 5333 5331 5329 5327 5325 5323 5322 5320 5319 5317 5315 5313 5310 5308 5306 5303 5301 5297 5295 5295 5295 5296 5296 5295 5294 5294 5294 5292 5294
5321 5321 5322 5323 5323 5323 5324 5323 5322 5321 5320 5318 5316 5314 5312 5311 5309 5308 5306 5304 5302 5299 5297 5295 5293 5290 5288 5286 5284 5285 5285 5285 5287 5287 5288 5288 5287 5287